Location: Andrest
(43.3200°N, 0.0641°E)
Time: 14:28:05
(UTC+00:00)

Cosmos 1934 Rocket - Pass Details

Date: 01 December 2020
Orbit: 937 x 1000 km, 83.0° (Epoch: 22 January)

Event Time Altitude Azimuth Distance (km) Brightness Sun altitude
Rises 18:59:13 0° 351° (N) 3,731 7.1 -27.4°
Reaches altitude 10° 19:01:46 10° 351° (N) 2,775 6.4 -27.8°
Maximum altitude 19:08:10 83° 264° (W) 1,003 4.0 -29.0°
Drops below altitude 10° 19:14:25 10° 178° (S) 2,724 6.3 -30.1°
Sets 19:16:54 0° 177° (S) 3,659 7.0 -30.6°
